TimeCST,TemperatureF,Dew PointF,Humidity,Sea Level PressureIn,VisibilityMPH,Wind Direction,Wind SpeedMPH,Gust SpeedMPH,PrecipitationIn,Events,Conditions,WindDirDegrees,DateUTC
12:15 AM,25.5,11.3,55,30.05,10.0,WNW,32.2,41.4,N/A,,Clear,300,2013-01-20 06:15:00
12:35 AM,24.8,12.4,59,30.06,10.0,WNW,29.9,35.7,N/A,,Clear,300,2013-01-20 06:35:00
12:55 AM,23.5,12.7,63,30.08,10.0,WNW,21.9,28.8,N/A,,Clear,290,2013-01-20 06:55:00
1:15 AM,22.6,11.1,61,30.09,10.0,WNW,26.5,33.4,N/A,,Clear,290,2013-01-20 07:15:00
1:35 AM,21.9,10.0,60,30.11,10.0,WNW,28.8,32.2,N/A,,Clear,300,2013-01-20 07:35:00
1:55 AM,21.6,11.1,64,30.12,10.0,WNW,24.2,33.4,N/A,,Clear,290,2013-01-20 07:55:00
2:15 AM,20.7,8.8,60,30.13,10.0,WNW,32.2,39.1,N/A,,Clear,300,2013-01-20 08:15:00
2:35 AM,20.3,10.0,65,30.16,10.0,WNW,21.9,29.9,N/A,,Clear,290,2013-01-20 08:35:00
2:55 AM,19.4,9.7,66,30.18,10.0,WNW,20.7,28.8,N/A,,Clear,300,2013-01-20 08:55:00
3:15 AM,18.5,8.4,65,30.18,10.0,WNW,24.2,32.2,N/A,,Clear,300,2013-01-20 09:15:00
3:35 AM,18.0,7.7,64,30.18,10.0,NW,26.5,33.4,N/A,,Clear,310,2013-01-20 09:35:00
3:55 AM,17.6,8.1,66,30.19,10.0,WNW,18.4,27.6,N/A,,Clear,300,2013-01-20 09:55:00
4:15 AM,17.2,7.9,67,30.20,10.0,NW,20.7,27.6,N/A,,Clear,310,2013-01-20 10:15:00
4:35 AM,16.7,7.3,67,30.22,10.0,NW,23.0,28.8,N/A,,Clear,310,2013-01-20 10:35:00
4:55 AM,16.3,7.7,69,30.23,10.0,WNW,18.4,25.3,N/A,,Clear,300,2013-01-20 10:55:00
5:15 AM,15.8,6.3,66,30.24,10.0,WNW,19.6,25.3,N/A,,Clear,300,2013-01-20 11:15:00
5:35 AM,15.6,7.0,69,30.25,10.0,WNW,13.8,-,N/A,,Clear,290,2013-01-20 11:35:00
5:55 AM,14.9,6.3,69,30.26,10.0,WNW,13.8,19.6,N/A,,Clear,290,2013-01-20 11:55:00
6:15 AM,14.9,6.8,70,30.27,10.0,WNW,13.8,-,N/A,,Clear,300,2013-01-20 12:15:00
6:35 AM,14.5,5.9,69,30.28,10.0,WNW,13.8,20.7,N/A,,Clear,300,2013-01-20 12:35:00
6:55 AM,14.4,6.3,70,30.29,10.0,WNW,12.7,-,N/A,,Clear,290,2013-01-20 12:55:00
7:15 AM,14.4,5.9,69,30.29,10.0,WNW,16.1,-,N/A,,Clear,300,2013-01-20 13:15:00
7:35 AM,14.4,6.3,70,30.29,10.0,NW,17.3,-,N/A,,Clear,310,2013-01-20 13:35:00
7:55 AM,14.4,6.4,71,30.30,10.0,NW,11.5,-,N/A,,Clear,310,2013-01-20 13:55:00
8:15 AM,14.5,5.9,69,30.30,10.0,NW,13.8,-,N/A,,Clear,310,2013-01-20 14:15:00
8:35 AM,14.4,6.4,71,30.31,10.0,NW,15.0,-,N/A,,Clear,310,2013-01-20 14:35:00
8:55 AM,15.1,6.3,68,30.32,10.0,WNW,13.8,-,N/A,,Clear,300,2013-01-20 14:55:00
9:15 AM,15.6,6.1,66,30.33,10.0,NW,11.5,-,N/A,,Clear,310,2013-01-20 15:15:00
9:35 AM,16.0,5.5,63,30.32,10.0,NNW,10.4,-,N/A,,Clear,330,2013-01-20 15:35:00
9:55 AM,17.2,5.9,61,30.32,10.0,NW,11.5,-,N/A,,Clear,320,2013-01-20 15:55:00
10:15 AM,17.4,5.9,61,30.32,10.0,NW,11.5,-,N/A,,Clear,310,2013-01-20 16:15:00
10:35 AM,17.6,6.8,63,30.32,10.0,NW,10.4,17.3,N/A,,Scattered Clouds,320,2013-01-20 16:35:00
10:55 AM,18.3,7.0,61,30.32,10.0,NW,11.5,-,N/A,,Clear,310,2013-01-20 16:55:00
11:15 AM,18.5,7.9,63,30.33,10.0,WNW,11.5,16.1,N/A,,Clear,290,2013-01-20 17:15:00
11:35 AM,19.2,7.5,60,30.31,10.0,NW,15.0,-,N/A,,Clear,310,2013-01-20 17:35:00
11:55 AM,19.2,7.5,60,30.30,10.0,NW,11.5,-,N/A,,Clear,310,2013-01-20 17:55:00
12:15 PM,19.9,8.4,61,30.29,10.0,WNW,11.5,17.3,N/A,,Mostly Cloudy,290,2013-01-20 18:15:00
12:35 PM,19.9,7.7,59,30.29,10.0,WNW,15.0,-,N/A,,Scattered Clouds,300,2013-01-20 18:35:00
12:55 PM,19.9,7.7,59,30.29,10.0,WNW,12.7,17.3,N/A,,Clear,300,2013-01-20 18:55:00
1:15 PM,20.1,7.3,58,30.28,10.0,WNW,11.5,18.4,N/A,,Clear,300,2013-01-20 19:15:00
1:35 PM,20.7,7.2,56,30.28,10.0,WNW,9.2,-,N/A,,Clear,290,2013-01-20 19:35:00
1:55 PM,21.0,7.0,55,30.28,10.0,NW,12.7,-,N/A,,Scattered Clouds,310,2013-01-20 19:55:00
2:15 PM,21.0,7.7,56,30.28,10.0,WNW,11.5,16.1,N/A,,Mostly Cloudy,290,2013-01-20 20:15:00
2:35 PM,20.8,6.8,55,30.28,10.0,WNW,13.8,-,N/A,,Scattered Clouds,300,2013-01-20 20:35:00
2:55 PM,20.7,6.4,54,30.28,10.0,WNW,12.7,-,N/A,,Scattered Clouds,290,2013-01-20 20:55:00
3:15 PM,21.0,6.6,54,30.28,10.0,NW,15.0,18.4,N/A,,Scattered Clouds,310,2013-01-20 21:15:00
3:35 PM,20.8,7.2,56,30.28,10.0,West,11.5,-,N/A,,Clear,280,2013-01-20 21:35:00
3:55 PM,20.8,7.5,56,30.28,10.0,NW,13.8,18.4,N/A,,Clear,310,2013-01-20 21:55:00
4:15 PM,20.1,7.5,58,30.28,10.0,WNW,12.7,-,N/A,,Clear,300,2013-01-20 22:15:00
4:35 PM,19.6,7.7,60,30.28,10.0,West,11.5,16.1,N/A,,Scattered Clouds,280,2013-01-20 22:35:00
4:55 PM,19.4,7.3,60,30.29,10.0,WNW,12.7,-,N/A,,Mostly Cloudy,290,2013-01-20 22:55:00
5:15 PM,19.4,7.7,60,30.28,10.0,WNW,12.7,-,N/A,,Mostly Cloudy,290,2013-01-20 23:15:00
5:35 PM,19.4,8.2,62,30.28,10.0,WNW,12.7,-,N/A,,Overcast,300,2013-01-20 23:35:00
5:55 PM,19.2,8.6,63,30.28,10.0,WNW,11.5,-,N/A,,Overcast,300,2013-01-20 23:55:00
6:15 PM,18.9,8.4,64,30.28,10.0,West,9.2,17.3,N/A,,Overcast,280,2013-01-21 00:15:00
6:35 PM,18.5,8.4,65,30.28,10.0,WNW,9.2,17.3,N/A,,Overcast,290,2013-01-21 00:35:00
6:55 PM,18.5,9.1,67,30.28,10.0,WNW,11.5,-,N/A,,Overcast,290,2013-01-21 00:55:00
7:15 PM,18.1,9.3,68,30.28,10.0,WNW,10.4,16.1,N/A,,Overcast,290,2013-01-21 01:15:00
7:35 PM,18.1,9.7,70,30.28,10.0,WNW,10.4,-,N/A,,Overcast,290,2013-01-21 01:35:00
7:55 PM,18.1,9.1,68,30.27,10.0,WNW,11.5,-,N/A,,Overcast,290,2013-01-21 01:55:00
8:15 PM,17.8,7.9,65,30.26,10.0,WNW,13.8,17.3,N/A,,Overcast,300,2013-01-21 02:15:00
8:35 PM,17.6,9.1,69,30.26,10.0,WNW,10.4,-,N/A,,Overcast,290,2013-01-21 02:35:00
8:55 PM,17.6,10.2,73,30.26,10.0,WNW,11.5,-,N/A,,Overcast,290,2013-01-21 02:55:00
9:15 PM,17.4,9.5,71,30.26,10.0,WNW,12.7,17.3,N/A,,Overcast,290,2013-01-21 03:15:00
9:35 PM,17.6,10.4,73,30.26,10.0,WNW,11.5,-,N/A,,Overcast,290,2013-01-21 03:35:00
9:55 PM,17.1,9.5,72,30.25,10.0,West,9.2,-,N/A,,Overcast,280,2013-01-21 03:55:00
10:15 PM,16.7,8.6,70,30.25,10.0,WNW,11.5,-,N/A,,Overcast,290,2013-01-21 04:15:00
10:35 PM,16.5,9.0,72,30.24,10.0,West,13.8,17.3,N/A,,Overcast,270,2013-01-21 04:35:00
10:55 PM,15.8,8.2,72,30.25,10.0,West,11.5,-,N/A,,Mostly Cloudy,280,2013-01-21 04:55:00
11:15 PM,15.8,8.6,73,30.24,10.0,WNW,11.5,18.4,N/A,,Mostly Cloudy,290,2013-01-21 05:15:00
11:35 PM,15.8,8.1,72,30.23,10.0,WNW,13.8,-,N/A,,Overcast,290,2013-01-21 05:35:00
11:55 PM,15.4,7.5,71,30.23,10.0,West,12.7,-,N/A,,Overcast,280,2013-01-21 05:55:00